TIANLIAN 1-04

Last updated on Tue Sep 16 2025 00:02:49 GMT+0000 (Coordinated Universal Time)

1 41869U 16072A 25258.58656858 .00000015 00000+0 00000+0 0 9991 2 41869 0.1553 79.0890 0047019 92.8903 210.8114 1.00274474 32549
UTC large
Height (km)
Speed (km/s)
/
Latitude / Longitude
Inclination (degrees)
Orbital Period (minutes)
Azimuth
Elevation
Range (km)
Doppler Factor

Next 0 passes for location: London (51.5072 / 0.1276)

Sorry there are no passes over London.